Terug naar catalogus

CZ-4B DEB

ActiefSSO
NORAD 29536·DEBRIS·🇨🇳 China

Gelanceerd Apr 26, 2006 vanaf Taiyuan Satellite Launch Center

Loading…

Volgende Passages (komende 24 uur)

TLE

VersSource: Space-Track

Epoch: Sep 14, 2026, 20:23 UTC

1 29536U 06015C   26257.84944823  .00016639  00000-0  14040-2 0  9997
2 29536  97.8802 217.9151 0080949  25.1512 335.3616 14.95656027 77324

Volg CZ-4B DEB in realtime met AllMySat

Download on the App Store